[[{"header":{"parameterUnit":"m.s-1","parameterCategory":1,"la1":30.2991,"la2":30.254,"lo1":-89.0895,"lo2":-89.0444,"dy":0.0017,"dx":0.0017,"nx":28,"ny":28,"refTime":"2024-10-09T09:00:00:Z","depth":0,"parameterNumber":2,"parameterNumberName":"U-component_of_WINDS"},"data":[0,0,0,0,0,0,0,0,0,0,0,0,0,0,0,0,0,0,0,0,0,0,0,0,0,0,0,0,0,0,0,0,0,0,0,0,0,0,0,0,0,0,0,0,0,0,0,0,0,0,0,0,0,0,0,0,0,0,-1.0107,-1.0108,0,-1.0214,-1.0215,-1.0216,-1.0205,-1.0203,-1.0202,-1.02,-1.0313,-1.0318,-1.0322,0,0,0,0,0,0,0,0,0,0,0,0,0,-0.9895,-0.9899,-1.0106,-1.0108,-1.0109,-1.0214,-1.0215,-1.0217,-1.0205,-1.0203,-1.0201,-1.0199,-1.0312,-1.0317,-1.0323,0,0,0,0,0,0,0,0,0,0,0,0,0,-0.9993,-0.99,-1.0106,-1.0116,-1.0118,-1.0213,-1.0215,-1.0217,-1.0206,-1.0203,-1.0201,-1.0198,-1.031,-1.0317,-1.0324,-1.0417,0,0,-1.0345,-1.0348,0,0,0,0,0,0,0,0,-0.9987,-1.0001,-1.0113,-1.0116,-1.0118,-1.0193,-1.0182,-1.0284,-1.0207,-1.0173,-1.02,-1.0197,-1.0276,-1.0285,-1.0311,-1.0422,-1.0427,-1.0345,-1.0349,-1.0352,-1.0354,0,0,0,0,0,0,0,-0.998,-0.9996,-1.0149,-1.0115,-1.0118,-1.0116,-1.0127,-1.0201,-1.0237,-1.0175,-1.0175,-1.0187,-1.0276,-1.0304,-1.0314,-1.0429,-1.0345,-1.0351,-1.0355,-1.0358,-1.0622,-1.0625,0,0,0,0,0,0,-0.9971,-0.999,-1.0146,-1.0152,-1.0045,-1.0122,-1.0134,-1.0172,-1.0236,-1.0244,-1.019,-1.0187,-1.0294,-1.0306,-1.0318,-1.0432,-1.0352,-1.0359,-1.0363,-1.0619,-1.0623,-1.0626,0,0,0,0,0,0,-0.9966,-0.9985,-1.0141,-1.0071,-1.0091,-1.0128,-1.017,-1.0175,-1.0203,-1.0247,-1.0254,-1.0211,-1.0292,-1.0308,-1.0392,-1.0436,-1.0362,-1.0368,-1.0616,-1.062,-1.0624,-1.0661,0,0,0,0,0,0,-0.996,-0.9983,-1.0019,-1.0072,-1.0095,-1.0214,-1.0173,-1.0179,-1.0215,-1.0212,-1.0269,-1.0276,-1.0292,-1.0382,-1.0399,-1.0444,-1.0373,-1.0612,-1.0618,-1.0623,-1.0656,-1.0666,-1.0675,0,0,0,0,0,-0.9953,-1.0025,-1.002,-1.0039,-1.014,-1.0216,-1.0229,-1.0244,-1.0218,-1.0255,-1.0283,-1.0275,-1.0428,-1.0391,-1.041,-1.0458,-1.061,-1.0616,-1.0623,-1.0652,-1.0664,-1.0675,0,0,0,0,0,0,-0.9978,-1.0033,-1.0028,-1.012,-1.0163,-1.0214,-1.0261,-1.0257,-1.0309,-1.0305,-1.0322,-1.0335,-1.042,-1.0447,-1.0405,-1.0551,-1.0515,-1.0526,-1.0531,-1.0543,-1.0552,-1.0545,-1.0379,0,0,0,0,0,-0.9993,-1.005,-1.0095,-1.0172,-1.0194,-1.0223,-1.0257,-1.0265,-1.0311,-1.033,-1.0364,-1.041,-1.0468,-1.0507,-1.0563,-1.0659,-1.0672,-1.0701,-1.071,-1.0718,-1.0728,-1.0781,-1.0795,-1.0647,-1.0647,-1.0647,0,0,-1.0028,-1.0064,-1.0099,-1.0178,-1.0212,-1.0272,-1.0239,-1.0303,-1.0348,-1.034,-1.0422,-1.0448,-1.0501,-1.0591,-1.0633,-1.0616,-1.0771,-1.0726,-1.0732,-1.0738,-1.079,-1.0803,-1.0816,-1.0652,-1.0651,-1.065,0,0,-1.012,-1.0153,-1.0221,-1.0256,-1.0308,-1.0327,-1.0343,-1.0394,-1.0412,-1.0493,-1.0489,-1.0542,-1.0642,-1.068,-1.0712,-1.0818,-1.0813,-1.0835,-1.0885,-1.0937,-1.0949,-1.0959,-1.0998,-1.1012,-1.0845,-1.0845,-1.0845,0,-1.0156,-1.0245,-1.0257,-1.0321,-1.0356,-1.035,-1.042,-1.0453,-1.0522,-1.0547,-1.0526,-1.0651,-1.0686,-1.0786,-1.0812,-1.0838,-1.0858,-1.083,-1.0946,-1.0956,-1.0966,-1.1004,-1.1018,-1.0847,-1.0847,-1.0847,-1.0846,0,-1.0287,-1.0348,-1.0397,-1.0462,-1.0502,-1.0569,-1.0592,-1.0631,-1.0635,-1.0656,-1.074,-1.0781,-1.0846,-1.0869,-1.0874,-1.097,-1.0958,-1.0941,-1.0906,-1.0983,-1.1018,-1.1033,-1.0851,-1.085,-1.0849,-1.0849,0,0,-1.0401,-1.047,-1.0488,-1.0518,-1.0574,-1.0623,-1.0689,-1.0751,-1.0785,-1.0832,-1.0889,-1.0973,-1.0958,-1.0994,-1.1003,-1.1048,-1.1131,-1.1026,-1.1028,-1.1046,-1.1241,-1.1254,-1.1271,-1.1126,-1.1129,-1.1131,-1.1237,0,-1.0501,-1.0618,-1.063,-1.0735,-1.0792,-1.0786,-1.0844,-1.0885,-1.0907,-1.0959,-1.0982,-1.1042,-1.1017,-1.1039,-1.1083,-1.1111,-1.117,-1.1103,-1.1182,-1.1184,-1.1171,-1.1289,-1.1304,-1.1402,-1.1251,-1.1253,-1.1255,0,-1.0633,-1.0683,-1.0793,-1.0842,-1.0866,-1.0918,-1.0976,-1.1025,-1.1072,-1.1084,-1.1124,-1.1127,-1.1196,-1.1156,-1.1252,-1.1206,-1.1239,-1.1257,-1.1261,-1.1271,-1.1226,-1.1304,-1.1433,-1.1449,-1.1276,-1.1275,-1.1273,0,-1.0707,-1.0802,-1.088,-1.0905,-1.0963,-1.1,-1.1026,-1.107,-1.1106,-1.1157,-1.1181,-1.1239,-1.1271,-1.1317,-1.1335,-1.1303,-1.1431,-1.1392,-1.1444,-1.1444,-1.1474,-1.1472,-1.1612,-1.1491,-1.149,-1.149,-1.149,0,-1.0819,-1.0887,-1.0914,-1.0963,-1.1039,-1.1052,-1.1128,-1.1152,-1.1191,-1.1245,-1.1243,-1.1293,-1.1313,-1.1367,-1.1382,-1.146,-1.1474,-1.1487,-1.1491,-1.1489,-1.1487,-1.1512,-1.1507,-1.1494,-1.1493,-1.1492,-1.1492,0,-1.0916,-1.0936,-1.1022,-1.1069,-1.1082,-1.1137,-1.1177,-1.1225,-1.1244,-1.1312,-1.1329,-1.136,-1.1424,-1.1445,-1.1523,-1.1532,-1.1624,-1.1621,-1.1608,-1.161,-1.1662,-1.1657,-1.1824,-1.1848,-1.1709,-1.171,-1.1711,0,-1.0987,-1.1039,-1.1091,-1.1127,-1.1154,-1.1211,-1.1248,-1.1262,-1.1301,-1.1357,-1.1398,-1.146,-1.1512,-1.1613,-1.1644,-1.1703,-1.1702,-1.1756,-1.1711,-1.1708,-1.1705,-1.1703,-1.1709,-1.1766,-1.1767,-1.1768,-1.1769,0,-1.1112,-1.1119,-1.1171,-1.1228,-1.1271,-1.1316,-1.136,-1.1389,-1.141,-1.1454,-1.1518,-1.1557,-1.1635,-1.1698,-1.1758,-1.1786,-1.1782,-1.1783,-1.1798,-1.1798,-1.179,-1.1797,-1.1634,-1.178,-1.1778,-1.1778,-1.1777,-1.1777,-1.1199,-1.1246,-1.1289,-1.1348,-1.1382,-1.1423,-1.147,-1.1494,-1.1548,-1.1612,-1.1617,-1.1687,-1.1732,-1.1812,-1.1842,-1.1897,-1.1882,-1.1904,-1.1911,-1.1917,-1.1921,-1.1778,-1.1908,-1.1908,-1.1907,-1.1907,-1.1907,0,-1.1325,-1.1353,-1.1406,-1.1467,-1.1513,-1.1503,-1.1551,-1.1591,-1.1652,-1.1693,-1.1743,-1.1817,-1.1877,-1.1912,-1.1972,-1.201,-1.201,-1.2026,-1.2024,-1.2031,-1.193,-1.1912,-1.2025,-1.2025,-1.2025,-1.2025,-1.2025,-1.2025,-1.1397,-1.1475,-1.1487,-1.1582,-1.1609,-1.1677,-1.1705,-1.1743,-1.1776,-1.1858,-1.1908,-1.1929,-1.1968,-1.2032,-1.2087,-1.2095,-1.2119,-1.2137,-1.2144,-1.205,-1.2038,-1.2027,-1.2009,-1.2141,-1.2141,-1.224,-1.2241,-1.2242]},{"header":{"parameterUnit":"m.s-1","parameterCategory":1,"la1":30.2991,"la2":30.254,"lo1":-89.0895,"lo2":-89.0444,"dy":0.0017,"dx":0.0017,"nx":28,"ny":28,"refTime":"2024-10-09T09:00:00:Z","depth":0,"parameterNumber":3,"parameterNumberName":"V-component_of_WINDS"},"data":[0,0,0,0,0,0,0,0,0,0,0,0,0,0,0,0,0,0,0,0,0,0,0,0,0,0,0,0,0,0,0,0,0,0,0,0,0,0,0,0,0,0,0,0,0,0,0,0,0,0,0,0,0,0,0,0,0,0,-5.9866,-5.9867,0,-5.9933,-5.9934,-5.9934,-5.9839,-5.9836,-5.9833,-5.9829,-5.9892,-5.9896,-5.9901,0,0,0,0,0,0,0,0,0,0,0,0,0,-5.9651,-5.9655,-5.9866,-5.9867,-5.9868,-5.9933,-5.9934,-5.9935,-5.984,-5.9836,-5.9832,-5.9828,-5.989,-5.9896,-5.9901,0,0,0,0,0,0,0,0,0,0,0,0,0,-5.9734,-5.9657,-5.9866,-5.9829,-5.9826,-5.9933,-5.9934,-5.9935,-5.9841,-5.9836,-5.9831,-5.9826,-5.9888,-5.9895,-5.9902,-6.0047,0,0,-5.9924,-5.9927,0,0,0,0,0,0,0,0,-5.9729,-5.9742,-5.9833,-5.9831,-5.9829,-5.9873,-5.988,-5.9972,-5.9842,-5.9835,-5.9829,-5.9824,-5.9889,-5.9896,-5.9919,-6.005,-6.0052,-5.9925,-5.9929,-5.9932,-5.9934,0,0,0,0,0,0,0,-5.9723,-5.9738,-5.9892,-5.9835,-5.9832,-5.9806,-5.9813,-5.9897,-5.9889,-5.9835,-5.9828,-5.9838,-5.9887,-5.9912,-5.992,-6.0053,-5.9924,-5.9931,-5.9935,-5.9938,-6.0305,-6.031,0,0,0,0,0,0,-5.9723,-5.9734,-5.989,-5.9894,-5.9766,-5.9814,-5.9821,-5.9864,-5.9888,-5.9887,-5.9842,-5.9833,-5.9903,-5.9912,-5.9922,-6.0092,-5.9932,-5.9939,-5.9943,-6.03,-6.0306,-6.0312,0,0,0,0,0,0,-5.9719,-5.9738,-5.9888,-5.9813,-5.983,-5.9824,-5.9872,-5.9868,-5.9893,-5.9893,-5.9891,-5.9871,-5.9899,-5.9912,-6.0017,-6.0093,-5.9942,-5.9948,-6.0293,-6.0302,-6.0309,-6.0435,0,0,0,0,0,0,-5.9713,-5.9737,-5.9793,-5.9815,-5.9834,-5.9984,-5.9876,-5.9872,-5.9907,-5.9896,-5.9919,-5.9918,-5.9896,-6.0007,-6.0024,-6.01,-5.9954,-6.0286,-6.0297,-6.0307,-6.0424,-6.0447,-6.0466,0,0,0,0,0,-5.9706,-5.9825,-5.9797,-5.9816,-5.9905,-5.9988,-5.9999,-5.9973,-5.9913,-5.9969,-5.9969,-5.9917,-6.0082,-6.0018,-6.0037,-6.0116,-6.0281,-6.0294,-6.0306,-6.0415,-6.0442,-6.0465,0,0,0,0,0,0,-5.981,-5.9827,-5.9796,-5.9926,-5.9957,-5.9972,-6.0042,-6.0003,-6.005,-6.0037,-6.0001,-6.0007,-6.012,-6.0128,-6.0057,-6.0257,-6.0171,-6.0188,-6.0248,-6.0274,-6.0294,-6.029,-5.996,0,0,0,0,0,-5.9849,-5.9918,-5.9928,-6.0041,-6.0059,-6.0048,-6.0083,-6.0061,-6.009,-6.0102,-6.011,-6.0139,-6.0197,-6.0236,-6.0289,-6.0425,-6.0428,-6.0489,-6.051,-6.0527,-6.0541,-6.0613,-6.064,-6.0352,-6.0352,-6.0352,0,0,-5.9929,-5.9946,-5.9991,-6.0063,-6.0084,-6.0154,-6.0059,-6.0137,-6.0188,-6.0113,-6.0214,-6.022,-6.025,-6.0371,-6.0425,-6.0382,-6.0622,-6.0543,-6.0556,-6.0561,-6.0629,-6.0656,-6.068,-6.0361,-6.0359,-6.0358,0,0,-6.011,-6.0131,-6.0228,-6.0252,-6.0286,-6.0278,-6.0301,-6.0323,-6.0325,-6.0426,-6.0371,-6.043,-6.0531,-6.0555,-6.058,-6.0771,-6.0725,-6.0789,-6.0898,-6.0968,-6.0991,-6.1011,-6.1078,-6.1103,-6.0803,-6.0804,-6.0804,0,-6.0204,-6.031,-6.0282,-6.0365,-6.0397,-6.0334,-6.0431,-6.0455,-6.0504,-6.0527,-6.0478,-6.0604,-6.062,-6.0746,-6.0792,-6.0815,-6.0839,-6.0786,-6.099,-6.101,-6.1028,-6.1092,-6.1118,-6.0811,-6.081,-6.081,-6.0809,0,-6.0423,-6.0497,-6.0571,-6.0623,-6.0663,-6.0753,-6.0737,-6.0781,-6.0755,-6.0752,-6.0854,-6.0871,-6.0927,-6.0955,-6.0929,-6.1077,-6.1049,-6.0996,-6.0909,-6.1064,-6.1123,-6.1147,-6.0822,-6.0819,-6.0817,-6.0815,0,0,-6.0672,-6.0708,-6.0736,-6.0758,-6.0792,-6.0847,-6.0933,-6.099,-6.1028,-6.1064,-6.1134,-6.1221,-6.1173,-6.1201,-6.1178,-6.124,-6.1389,-6.1179,-6.1179,-6.1217,-6.1552,-6.1592,-6.1621,-6.136,-6.1364,-6.1368,-6.155,0,-6.0852,-6.1004,-6.0981,-6.1126,-6.1193,-6.1135,-6.1209,-6.1237,-6.1236,-6.1291,-6.1289,-6.1352,-6.1283,-6.13,-6.1359,-6.1359,-6.1456,-6.1345,-6.1423,-6.1426,-6.1417,-6.1652,-6.1694,-6.1865,-6.1573,-6.1577,-6.158,0,-6.1083,-6.1131,-6.1283,-6.1306,-6.1333,-6.1401,-6.1451,-6.1506,-6.1535,-6.153,-6.1563,-6.1528,-6.1612,-6.1524,-6.1638,-6.1563,-6.1593,-6.1598,-6.1604,-6.161,-6.1512,-6.1664,-6.1919,-6.1945,-6.1616,-6.1613,-6.1611,0,-6.1249,-6.135,-6.1454,-6.1475,-6.1505,-6.1554,-6.1568,-6.1593,-6.1629,-6.1672,-6.1694,-6.1746,-6.1774,-6.1814,-6.1793,-6.1731,-6.1911,-6.1821,-6.1908,-6.1909,-6.1948,-6.1946,-6.2211,-6.1968,-6.1968,-6.1967,-6.1967,0,-6.1453,-6.1548,-6.1529,-6.1594,-6.1698,-6.167,-6.1774,-6.1781,-6.1803,-6.1866,-6.1818,-6.1877,-6.1847,-6.1904,-6.1888,-6.1985,-6.1997,-6.1995,-6.1989,-6.1999,-6.1999,-6.2018,-6.2005,-6.1974,-6.1973,-6.1971,-6.197,0,-6.1656,-6.1647,-6.1757,-6.1777,-6.1784,-6.186,-6.1876,-6.1935,-6.193,-6.2011,-6.2028,-6.2021,-6.2085,-6.2069,-6.2138,-6.2127,-6.225,-6.2229,-6.2241,-6.2235,-6.2323,-6.2315,-6.2609,-6.2646,-6.238,-6.2382,-6.2385,0,-6.1786,-6.1859,-6.1887,-6.1927,-6.1946,-6.201,-6.2047,-6.2022,-6.2062,-6.2101,-6.2155,-6.2216,-6.2263,-6.2368,-6.2368,-6.2421,-6.2401,-6.2501,-6.2408,-6.2416,-6.2402,-6.2398,-6.2405,-6.2519,-6.2522,-6.2524,-6.2526,0,-6.2019,-6.2012,-6.2068,-6.2123,-6.2169,-6.221,-6.2246,-6.2281,-6.2259,-6.2306,-6.2372,-6.2409,-6.2481,-6.2541,-6.259,-6.2602,-6.2561,-6.2556,-6.2578,-6.2589,-6.2593,-6.2592,-6.229,-6.2549,-6.2547,-6.2545,-6.2544,-6.2543,-6.2189,-6.2251,-6.2281,-6.2345,-6.237,-6.2406,-6.2463,-6.2467,-6.2522,-6.2581,-6.2562,-6.2638,-6.2664,-6.2726,-6.2744,-6.2802,-6.2763,-6.2797,-6.2805,-6.2813,-6.2824,-6.2584,-6.281,-6.2809,-6.2809,-6.2808,-6.2808,0,-6.2419,-6.2436,-6.2496,-6.2549,-6.26,-6.2558,-6.2597,-6.2641,-6.2709,-6.2738,-6.2786,-6.2862,-6.2921,-6.2926,-6.298,-6.3025,-6.3008,-6.3041,-6.3037,-6.304,-6.2855,-6.283,-6.3054,-6.3054,-6.3054,-6.3054,-6.3054,-6.3054,-6.2545,-6.2647,-6.2644,-6.2757,-6.2772,-6.2848,-6.2874,-6.2905,-6.2929,-6.3017,-6.3066,-6.307,-6.3089,-6.3145,-6.3196,-6.3196,-6.3218,-6.3258,-6.325,-6.3077,-6.3053,-6.303,-6.3006,-6.3263,-6.3263,-6.343,-6.3432,-6.3433]}]]